Content
SEND FEEDBACK

Daily
Averages
Monthly
Summary
United States of America

WUNPOST, CALIFORNIA


Home > North America > United States > California
Elevation: 440 feet     Latitude: 36 01N     Longitude: 120 54W

WEATHER
 
SELECT A DAY
Number of Records: 185,973;   Date Range: 1/1/95 - 7/20/14
 
SHARE

PRINT THIS DATA

[ ← Previous Day ]
WEATHER ALMANAC - FEBRUARY 1, 2013
[ Next Day → ]
[ °C ]   °F
Weather ElementAverageHighLow
Temperature47.5 °F69.1 °F (2:53 pm)32 °F (7:31 am)
Dewpoint39.1 °F45 °F (12:53 pm)30.2 °F (7:31 am)
Humidity76.2 %100 % (7:53 am)40 % (3:53 pm)
Barometer30.19 in30.22 in (7:53 am)30.12 in (1:53 pm)
Wind Speed2 mph10.4 mph (3:53 pm)
Weather ElementAverage
Visibility7.4 mi
Wind DirectionENE (51.2 °)

Weather ElementTotal
Precipitation---
Heating Degree Days14.5 (Base 65)
Growing Degree Days0.5 (Base 50)
Averaged from 25 records on February 1, 2013
WEATHER CONDITIONS BREAKOUT
WIND DIRECTION BREAKOUT
WEATHER BY HOUR - FEBRUARY 1, 2013
[ °C ]   °F
Local TimeTemperatureDewpointHumidityBarometerVisibilityWind DirectionWind SpeedGust SpeedPrecipitationEventsConditions
2:53 AM37.0 °F35.1 °F93 %30.20 in6.0 miCalmClear
3:53 AM36.0 °F34.0 °F93 %30.19 in5.0 miCalmClear
4:53 AM35.1 °F33.1 °F92 %30.19 in4.0 miCalmClear
5:46 AM33.8 °F32.0 °F93 %30.19 in2.5 miCalmClear
5:53 AM34.0 °F33.1 °F96 %30.20 in3.0 miSouth (170°)3.5 mphClear
7:31 AM32.0 °F30.2 °F93 %30.21 in2.5 miCalmClear
7:53 AM35.1 °F35.1 °F100 %30.22 in1.5 miCalmClear
8:06 AM37.4 °F35.6 °F93 %30.21 in2.5 miCalmClear
8:13 AM37.4 °F37.4 °F100 %30.21 in4.0 miCalmClear
8:53 AM39.0 °F37.0 °F93 %30.22 in5.0 miCalmClear
9:53 AM46.0 °F41.0 °F83 %30.22 in10.0 miCalmClear
10:53 AM52.0 °F41.0 °F66 %30.19 in10.0 miCalmClear
11:53 AM57.0 °F43.0 °F59 %30.17 in10.0 miCalmClear
12:53 PM62.1 °F45.0 °F53 %30.13 in10.0 miCalmClear
1:53 PM66.9 °F45.0 °F45 %30.12 in10.0 miCalmClear
2:53 PM69.1 °F45.0 °F42 %30.12 in10.0 miCalmClear
3:53 PM68.0 °F43.0 °F40 %30.12 in10.0 miSW (220°)10.4 mphClear
4:53 PM63.0 °F39.9 °F43 %30.13 in10.0 miSouth (190°)9.2 mphClear
5:53 PM59.0 °F41.0 °F51 %30.15 in10.0 miSouth (180°)6.9 mphClear
6:53 PM52.0 °F42.1 °F69 %30.18 in10.0 miEast (100°)5.8 mphClear
7:53 PM48.9 °F43.0 °F80 %30.19 in10.0 miSE (140°)5.8 mphClear
8:53 PM48.0 °F42.1 °F80 %30.21 in10.0 miCalmClear
9:53 PM46.9 °F41.0 °F80 %30.22 in10.0 miCalmClear
10:53 PM46.0 °F41.0 °F83 %30.22 in10.0 miNE (50°)5.8 mphClear
11:53 PM45.0 °F41.0 °F86 %30.22 in10.0 miSW (230°)3.5 mphClear
Hourly data recorded from KPRB, located miles away from Wunpost, California







STORIES FROM OUR PARTNERS